sat.trackr.live / text

‹ back to catalog

AEROCUBE 16B

NORAD 59291 · 2024-053D

PAYLOAD ACTIVE UNKNOWN

§ Identity

Operator
Country
US
Launch date
2024-03-21
Launch site
WLPIS
Launch vehicle
Mass (kg)
RCS (m²)

External: N2YO · Heavens-Above · Gunter

§ Orbital elements

Epoch: 2026-09-21T23:38:37.248576Z

Period
93.12 min
Inclination
49.9897°
Eccentricity
0.0002529
Mean motion
15.46464800 rev/d
Perigee alt
425.4 km
Apogee alt
428.8 km
Semi-major
6,805.2 km
B*
2.6005e-4
RAAN
191.7434°
Arg perigee
35.6494°
Mean anomaly
324.4639°
Rev number
13,615

§ Raw data

AEROCUBE 16B1 59291U 24053D   26264.98515334  .00012725  00000+0  26005-3 0  99902 59291  49.9897 191.7434 0002529  35.6494 324.4639 15.46464800136157

JSON: /api/v1/satellites/59291 · /tle

For live sub-satellite position, see the globe view (requires WebGL).

§ Visibility from observer

Set your observer location to see the next 7 days of passes ≥ 10°. The values pass through the URL so the page stays shareable.

No JS? Fill the form by hand. The geolocation button needs JavaScript.

§ Radio — SatNOGS DB

ModeDescriptionDownlinkUplink
FM S-band telemetry 2.225 GHz

1 transmitter · refreshed weekly from db.satnogs.org